Weather Roundup
Issued by NWS

Home | Current Version | Previous Version | Graphics & Text | Print | Product List | Glossary Off
Versions: 1 2 3 4 5 6 7 8 9 10 11 12 13 14 15 16 17 18 19 20 21 22 23 24 25 26 27 28 29 30 31 32 33 34 35 36 37 38 39 40 41 42 43 44 45 46 47 48 49 50

994
NZUS93 KARX 290010
HRRWXR

CURRENT HOURLY OBSERVATIONS ACROSS
MUCH OF THE UPPER MISSISSIPPI VALLEY
NATIONAL WEATHER SERVICE LA CROSSE WI
700 PM CDT FRI APR 28 2017


...SOUTHEAST MINNESOTA...


CITY           SKY/WX    TMP DP  RH WIND       PRES   REMARKS
ROCHESTER      CLOUDY    44  30  57 N8        29.96R
ROCHESTER/MAYO FAIR      45  30  55 N3        29.97R
WINONA         MOSUNNY   48  34  57 CALM      29.96F
AUSTIN         CLOUDY    45  32  61 N5        29.96R
ALBERT LEA     CLOUDY    45  30  57 N6        29.97R
DODGE CENTER   CLOUDY    45  32  61 N6        29.97R
PRESTON        CLOUDY    43  33  65 NE6       29.94R
OWATONNA       CLOUDY    46  30  53 N5        29.98R
FARIBAULT      CLOUDY    48  32  53 N5        29.98R
$$

...ELSEWHERE IN MINNESOTA...


CITY           SKY/WX    TMP DP  RH WIND       PRES   REMARKS
MINNEAPOLIS    PTSUNNY   50  28  42 N12       29.98R
INTNL FALLS    SUNNY     44  19  36 N3        30.01R
DULUTH         CLOUDY    46  26  45 N14G21    29.96R
RED WING       MOSUNNY   48  27  43 N6        29.97R
REDWOOD FALLS  MOSUNNY   52  23  32 N10       30.00R
MANKATO        MOSUNNY   48  31  51 N12       29.99R
WORTHINGTON    CLOUDY    47  31  53 NE17G23   29.99R
FAIRMONT       CLOUDY    46  32  58 N12       29.98S
$$

...SOUTHWEST WISCONSIN...


CITY           SKY/WX    TMP DP  RH WIND       PRES   REMARKS
LA CROSSE      CLOUDY    49  33  54 N6        29.94F
PRAIRIE DU CHI CLOUDY    45  38  77 N6        29.94R
BOSCOBEL       LGT RAIN  47  42  83 N6        29.94R
LONE ROCK      LGT RAIN  47  41  80 NE5       29.94S
PLATTEVILLE    CLOUDY    46  44  94 N9        29.92R
FORT MC COY    CLOUDY    46  33  59 NW5       29.97R
CAMP DOUGLAS   CLOUDY    46  35  64 NW6       29.95R
MAUSTON-NEW LI RAIN      47  37  67 N3        29.96R
VIROQUA        CLOUDY    43  37  81 CALM      29.94F
WIS DELLS      LGT RAIN  45  38  77 N5        29.95R
$$

...ELSEWHERE IN WISCONSIN...


CITY           SKY/WX    TMP DP  RH WIND       PRES   REMARKS
MILWAUKEE      LGT RAIN  45  40  82 N6        29.91R
MADISON        LGT RAIN  46  43  89 CALM      29.93R
GREEN BAY      CLOUDY    50  37  61 NW6       29.93R
EAU CLAIRE     CLOUDY    48  29  47 N7        29.96R
BLACK RVR FLS  FAIR      47  28  46 CALM      29.96R
MEDFORD        CLOUDY    43  30  59 N6        29.93R
WAUSAU         MOCLDY    45  30  55 W7        29.93R
WIS RAPIDS     PTCLDY    48  32  53 NW3       29.97R
MARSHFIELD     CLOUDY    45  30  55 NW7       29.94R
RICE LAKE      MOSUNNY   47  28  47 N6        29.98R
$$

...NORTHEAST IOWA...


CITY           SKY/WX    TMP DP  RH WIND       PRES   REMARKS
WATERLOO       CLOUDY    45  38  76 NE8       29.93R
DUBUQUE        CLOUDY    44  43  96 NE10      29.90S
DECORAH        CLOUDY    43  39  87 VRB3      29.93R
MASON CITY     LGT RAIN  43  37  79 N5        29.97R
CHARLES CITY   CLOUDY    43  37  81 N7G13     29.95R
OELWEIN        CLOUDY    45  41  87 NE10      29.94R
$$

...ELSEWHERE IN IOWA...


CITY           SKY/WX    TMP DP  RH WIND       PRES   REMARKS
DES MOINES     CLOUDY    45  40  82 NE10      29.91S
IOWA CITY      CLOUDY    45  43  93 N10       29.91R
FORT DODGE     CLOUDY    43  36  75 N8        29.97R
MARSHALLTOWN   CLOUDY    44  40  85 NE14      29.92R
CEDAR RAPIDS   LGT RAIN  43  43 100 N12       29.90R FOG
$$

...NORTHERN ILLINOIS...


CITY           SKY/WX    TMP DP  RH WIND       PRES   REMARKS
CHICAGO-OHARE  CLOUDY    55  44  66 NE8       29.88R
CHICAGO-MIDWAY CLOUDY    53  45  74 E8        29.88R
MOLINE         CLOUDY    50  47  89 NE7       29.85R
ROCKFORD       CLOUDY    51  48  89 NE9       29.91S
PEORIA         CLOUDY    60  54  80 E3        29.83R
$$

NOTE: "FAIR" INDICATES FEW OR NO CLOUDS BELOW 12,000 FEET WITH NO
SIGNIFICANT WEATHER AND/OR OBSTRUCTIONS TO VISIBILITY. WIND
SPEEDS ARE IN MILES-PER-HOUR.




USA.gov is the U.S. government's official web portal to all federal, state and local government web resources and services.